{"data":{"norad_id":68675,"epoch":"2026-09-20T02:39:08.036352Z","epoch_age_seconds":77437,"freshness":"FRESH","line1":"1 68675U 26077P   26263.11050968  .00012577  00000+0  39108-3 0  9998","line2":"2 68675  97.2866 133.0182 0000991  87.9071 272.2285 15.33457809 24954","mean_motion":15.33457809,"eccentricity":9.91e-5,"inclination_deg":97.2866,"raan_deg":133.0182,"arg_perigee_deg":87.9071,"mean_anomaly_deg":272.2285,"bstar":0.00039108,"rev_number":2495,"period_min":93.905420256659,"perigee_km":464.82685924275,"apogee_km":466.18326909987,"semimajor_km":6843.6420641713,"source":"CELESTRAK","updated_at":"2026-09-20T09:00:43.952365Z"}}